Regional Weather Roundup
Issued by NWS Charleston, SC

Current Version | Previous Version | Graphics & Text | Print | Product List | Glossary On
Versions: 1 2 3 4 5 6 7 8 9 10 11 12 13 14 15 16 17 18 19 20 21 22 23 24 25 26 27 28 29 30 31 32 33 34 35 36 37 38 39 40 41 42 43 44 45 46 47 48 49 50
000 ASUS42 KCHS 291112 RWRCHS REGIONAL WEATHER ROUNDUP NATIONAL WEATHER SERVICE CHARLESTON SC 700 AM EDT WED MAR 29 2017 NOTE: "FAIR" INDICATES FEW OR NO CLOUDS BELOW 12,000 FEET WITH NO SIGNIFICANT WEATHER AND/OR OBSTRUCTIONS TO VISIBILITY. NOT ALL STATIONS ARE QUALITY CONTROLLED. USE DATA WITH CAUTION... ESPECIALLY DEWPOINT OBSERVATIONS. SCZ027-030-031-034>040-042>050-291200- ...SOUTHEAST SOUTH CAROLINA... CITY SKY/WX TMP DP RH WIND PRES REMARKS N CHARLESTON CLEAR 62 57 83 N8 29.97R WATERFRONT PRK N/A 64 62 93 N6 29.95R JOHNS ISLAND FAIR 63 61 94 N6 29.97R PINOPOLIS N/A 64 61 88 VRB3 29.89R MONCKS CORNER FAIR 61 55 82 N5 29.98R SUMMERVILLE FAIR 57 57 100 CALM 29.99R BEAUFORT MCAS CLEAR 63 61 93 NW3 29.98R BEAUFORT ARPT FAIR 63 61 94 W5 29.98R HILTON HEAD IS CLEAR 66 61 82 CALM 29.98R WALTERBORO SUNNY 59 55 88 NE3 29.99R ALLENDALE FAIR 57 55 94 CALM 29.98R ...SOUTHERN MIDLANDS AND PEE DEE... CITY SKY/WX TMP DP RH WIND PRES REMARKS GEORGETOWN FAIR 59 54 82 N3 29.99R KINGSTREE FAIR 57 50 77 CALM 29.99R ORANGEBURG CLEAR 62 51 67 NE7 30.00R BARNWELL FAIR 61 54 77 NE7 30.00R AIKEN FAIR 52 50 93 NE5 30.04R MANNING FAIR 54 50 87 N3 30.00R COLUMBIA CLEAR 54 50 86 CALM 30.00R SUMTER CLEAR 59 49 70 N6 29.99R FLORENCE CLEAR 58 52 80 N6 30.00R MYRTLE BEACH CLEAR 61 54 77 N9 29.98R N MYRTLE BEACH CLEAR 61 53 75 N8 29.97R $$ GAZ063-065-086>088-099>101-113>116-118-119-134>141-150-291200- ...SOUTHEAST GEORGIA... CITY SKY/WX TMP DP RH WIND PRES REMARKS SAVANNAH ARPT PTCLDY 62 58 86 W3 29.98R HUNTER AAF CLEAR 61 61 100 CALM 29.95R FORT STEWART CLEAR 62 60 92 CALM 29.96R STATESBORO CLEAR 61 61 100 CALM 29.98S SYLVANIA SUNNY N/A N/A N/A CALM 30.00R FOG CLAXTON FAIR N/A N/A N/A CALM 29.98S ...CSRA...CENTRAL AND FAR SOUTHEAST GEORGIA... CITY SKY/WX TMP DP RH WIND PRES REMARKS THOMSON CLEAR 53 51 94 CALM 30.05R AUGUSTA-BUSH CLEAR 54 52 93 CALM 29.99R AUGUSTA-DANIEL CLEAR 62 51 67 NE5 30.00R SWAINSBORO FAIR 59 59 100 CALM 30.00R VIDALIA CLEAR 63 61 94 CALM 29.99S EASTMAN FAIR 60 60 100 CALM 30.02R FOG HAZLEHURST FAIR 65 65 100 CALM 29.99R ALMA CLEAR 62 61 96 CALM 29.99R FOG WAYCROSS CLEAR 68 68 100 NW6 29.99R JESUP FAIR 61 57 88 CALM 29.99R BAXLEY FAIR 61 61 100 CALM 29.99R FOG BRUNSWICK CLEAR 63 63 100 W3 29.99R SAINT SIMONS CLEAR 66 61 84 W6 29.98R $$ SCZ027-028-034-036>038-045-046-048>050-GAZ119-141-291200- ...LAKE AND SUPPLEMENTAL COASTAL OBSERVATIONS... STATION/POSITION TIME TEMP WIND PRES WAVE SWELL AIR SEA DIR/SP/G HT/PER HT/PER/DIR (UTC) (F) (DEG/KT/KT) (MB) (FT/S) (FT/S/D) WINYAH BAY NOT AVBL LAKE MURRAY 1020 59 CALM 1015.6 ACE BASIN NERRS NOT AVBL FORT PULASKI 1048 66 66 310/ 6/ 7 1015.2R SAPELO ISLAND 1000 66 300/ 2 1015.0 $$ ANZ835-935-AMZ111-154-330-350-352-354-370-450-454-472-291200- ...C-MAN AND BUOY OBSERVATIONS... STATION/POSITION TIME TEMP WIND PRES WAVE SWELL AIR SEA DIR/SP/G HT/PER HT/PER/DIR (UTC) (F) (DEG/KT/KT) (MB) (FT/S) (FT/S/D) BUOY 41004 0950 68 71 270/ 14/ 16 1013.2 5/10 3/120/10 BUOY 41008 1050 67 64 290/ 8/ 10 1014.5R 3/10 3/100/10 FOLLY BEACH CMAN 1000 63 310/ 3/ 4 1014.6R CAPERS NEARSHORE NOT AVBL FRIPP NEARSHORE 1008 65 63 270/ 6/ 10 1014.0R STATION/POSITION TIME TEMP WIND PRES WAVE SWELL AIR SEA DIR/SP/G HT/PER HT/PER/DIR (UTC) (F) (DEG/KT/KT) (MB) (FT/S) (FT/S/D) 5E ST. MARYS GA 1030 67 N/A 3/11 2/110/11 FRYING PAN BUOY 1050 68 73 360/ 12/ 16 1014.0R 4/10 3/120/10 BUOY 41025 1050 63 74 20/ 14/ 16 1013.8R 4/ 9 3/140/ 9 CAPE LOOKOUT NC 1000 64 330/ 5/ 5 1013.6R BUOY 41002 1050 71 72 240/ 17/ 21 1013.6R 6/10 3/100/10 BUOY 41010 NOT AVBL ST AUGUSTINE FL 1100 62 66 230/ 5/ 7 1017.1R $$

USA.gov is the U.S. government's official web portal to all federal, state and local government web resources and services.